{"data":{"norad_id":24936,"epoch":"2026-06-22T14:11:33.529920Z","epoch_age_seconds":7780230,"freshness":"OLD","line1":"1 24936U 97050A   26173.59136030 -.00000004  00000+0  00000+0 0  9994","line2":"2 24936   8.1784  63.9286 0004406  30.0620 235.7958  0.99064631 52489","mean_motion":0.99064631,"eccentricity":0.0004406,"inclination_deg":8.1784,"raan_deg":63.9286,"arg_perigee_deg":30.062,"mean_anomaly_deg":235.7958,"bstar":0,"rev_number":5248,"period_min":1453.5964909615,"perigee_km":36109.707427247,"apogee_km":36147.164219219,"semimajor_km":42506.572823233,"source":"CELESTRAK","updated_at":"2026-06-23T09:00:34.742620Z"}}